owner,sensor,date,latitude,longitude,vertical_datum,sea_water_practical_salinity,qcFlag 
DISL,ioos:station:DISL:PPTA:1,2016-05-01T00:00:00Z,30.2791,-87.5561,1.623,21.66,1111122 
DISL,ioos:station:DISL:PPTA:1,2016-05-01T00:30:00Z,30.2791,-87.5561,1.56,23.79,1111122 
DISL,ioos:station:DISL:PPTA:1,2016-05-01T01:00:00Z,30.2791,-87.5561,1.544,22.76,1111122 
DISL,ioos:station:DISL:PPTA:1,2016-05-01T01:30:00Z,30.2791,-87.5561,1.592,23.66,1111122 
DISL,ioos:station:DISL:PPTA:1,2016-05-01T02:00:00Z,30.2791,-87.5561,1.616,23.38,1111122 
DISL,ioos:station:DISL:PPTA:1,2016-05-01T02:30:00Z,30.2791,-87.5561,1.564,20.38,1111122 
DISL,ioos:station:DISL:PPTA:1,2016-05-01T03:00:00Z,30.2791,-87.5561,1.561,20.13,1111122 
DISL,ioos:station:DISL:PPTA:1,2016-05-01T03:30:00Z,30.2791,-87.5561,1.38,22.43,1111122 
DISL,ioos:station:DISL:PPTA:1,2016-05-01T04:00:00Z,30.2791,-87.5561,1.525,20.53,1111122 
DISL,ioos:station:DISL:PPTA:1,2016-05-01T04:30:00Z,30.2791,-87.5561,1.608,18.14,1111122 
DISL,ioos:station:DISL:PPTA:1,2016-05-01T05:00:00Z,30.2791,-87.5561,1.671,17.22,1111122 
DISL,ioos:station:DISL:PPTA:1,2016-05-01T05:30:00Z,30.2791,-87.5561,1.492,18.41,1111122 
DISL,ioos:station:DISL:PPTA:1,2016-05-01T06:00:00Z,30.2791,-87.5561,1.547,20.61,1111122 
DISL,ioos:station:DISL:PPTA:1,2016-05-01T06:30:00Z,30.2791,-87.5561,1.469,16.96,1111122 
DISL,ioos:station:DISL:PPTA:1,2016-05-01T07:00:00Z,30.2791,-87.5561,1.399,16.49,1111122 
DISL,ioos:station:DISL:PPTA:1,2016-05-01T07:30:00Z,30.2791,-87.5561,1.475,15.71,1111122 
DISL,ioos:station:DISL:PPTA:1,2016-05-01T08:00:00Z,30.2791,-87.5561,1.468,16.09,1111122 
DISL,ioos:station:DISL:PPTA:1,2016-05-01T08:30:00Z,30.2791,-87.5561,1.537,14.7,1111122 
DISL,ioos:station:DISL:PPTA:1,2016-05-01T09:00:00Z,30.2791,-87.5561,1.474,16.95,1111122 
DISL,ioos:station:DISL:PPTA:1,2016-05-01T09:30:00Z,30.2791,-87.5561,1.449,15.8,1111122 
DISL,ioos:station:DISL:PPTA:1,2016-05-01T10:00:00Z,30.2791,-87.5561,1.469,15.93,1111122 
DISL,ioos:station:DISL:PPTA:1,2016-05-01T10:30:00Z,30.2791,-87.5561,1.494,17.99,1111122 
DISL,ioos:station:DISL:PPTA:1,2016-05-01T11:00:00Z,30.2791,-87.5561,1.442,17.02,1111122 
DISL,ioos:station:DISL:PPTA:1,2016-05-01T11:30:00Z,30.2791,-87.5561,1.496,18.18,1111122 
DISL,ioos:station:DISL:PPTA:1,2016-05-01T12:00:00Z,30.2791,-87.5561,1.534,16.48,1111122 
DISL,ioos:station:DISL:PPTA:1,2016-05-01T12:30:00Z,30.2791,-87.5561,1.555,17.2,1111122 
DISL,ioos:station:DISL:PPTA:1,2016-05-01T13:00:00Z,30.2791,-87.5561,1.542,19.98,1111122 
DISL,ioos:station:DISL:PPTA:1,2016-05-01T13:30:00Z,30.2791,-87.5561,1.487,20.02,1111122 
DISL,ioos:station:DISL:PPTA:1,2016-05-01T14:00:00Z,30.2791,-87.5561,1.434,20.39,1111122 
DISL,ioos:station:DISL:PPTA:1,2016-05-01T14:30:00Z,30.2791,-87.5561,1.528,22.77,1111122 
DISL,ioos:station:DISL:PPTA:1,2016-05-01T15:00:00Z,30.2791,-87.5561,1.589,24.11,1111122 
DISL,ioos:station:DISL:PPTA:1,2016-05-01T15:30:00Z,30.2791,-87.5561,1.471,23.61,1111122 
DISL,ioos:station:DISL:PPTA:1,2016-05-01T16:00:00Z,30.2791,-87.5561,1.529,24.21,1111122 
DISL,ioos:station:DISL:PPTA:1,2016-05-01T16:30:00Z,30.2791,-87.5561,1.501,23.16,1111122 
DISL,ioos:station:DISL:PPTA:1,2016-05-01T17:00:00Z,30.2791,-87.5561,1.584,24.32,1111122 
DISL,ioos:station:DISL:PPTA:1,2016-05-01T17:30:00Z,30.2791,-87.5561,1.569,24.25,1111122 
DISL,ioos:station:DISL:PPTA:1,2016-05-01T18:00:00Z,30.2791,-87.5561,1.567,23.1,1111122 
DISL,ioos:station:DISL:PPTA:1,2016-05-01T18:30:00Z,30.2791,-87.5561,1.561,22.08,1111122 
DISL,ioos:station:DISL:PPTA:1,2016-05-01T19:00:00Z,30.2791,-87.5561,1.599,23.69,1111122 
DISL,ioos:station:DISL:PPTA:1,2016-05-01T19:30:00Z,30.2791,-87.5561,1.608,23.17,1111122 
DISL,ioos:station:DISL:PPTA:1,2016-05-01T20:00:00Z,30.2791,-87.5561,1.605,23.65,1111122 
DISL,ioos:station:DISL:PPTA:1,2016-05-01T20:30:00Z,30.2791,-87.5561,1.607,24.06,1111122 
DISL,ioos:station:DISL:PPTA:1,2016-05-01T21:00:00Z,30.2791,-87.5561,1.636,24.09,1111122 
DISL,ioos:station:DISL:PPTA:1,2016-05-01T21:30:00Z,30.2791,-87.5561,1.59,22.92,1111122 
DISL,ioos:station:DISL:PPTA:1,2016-05-01T22:00:00Z,30.2791,-87.5561,1.622,22.17,1111122 
DISL,ioos:station:DISL:PPTA:1,2016-05-01T22:30:00Z,30.2791,-87.5561,1.59,22.24,1111122 
DISL,ioos:station:DISL:PPTA:1,2016-05-01T23:00:00Z,30.2791,-87.5561,1.676,23.75,1111122 
DISL,ioos:station:DISL:PPTA:1,2016-05-01T23:30:00Z,30.2791,-87.5561,1.693,23.74,1111122 
DISL,ioos:station:DISL:PPTA:1,2016-05-02T00:00:00Z,30.2791,-87.5561,1.606,23.22,1111122 
DISL,ioos:station:DISL:PPTA:1,2016-05-02T00:30:00Z,30.2791,-87.5561,1.613,22.25,1111122 
DISL,ioos:station:DISL:PPTA:1,2016-05-02T01:00:00Z,30.2791,-87.5561,1.671,23.35,1111122 
DISL,ioos:station:DISL:PPTA:1,2016-05-02T01:30:00Z,30.2791,-87.5561,1.631,22.19,1111122 
DISL,ioos:station:DISL:PPTA:1,2016-05-02T02:00:00Z,30.2791,-87.5561,1.694,23.1,1111122 
DISL,ioos:station:DISL:PPTA:1,2016-05-02T02:30:00Z,30.2791,-87.5561,1.666,22.26,1111122 
DISL,ioos:station:DISL:PPTA:1,2016-05-02T03:00:00Z,30.2791,-87.5561,1.57,22.07,1111122 
DISL,ioos:station:DISL:PPTA:1,2016-05-02T03:30:00Z,30.2791,-87.5561,1.613,20.95,1111122 
DISL,ioos:station:DISL:PPTA:1,2016-05-02T04:00:00Z,30.2791,-87.5561,1.619,23.05,1111122 
DISL,ioos:station:DISL:PPTA:1,2016-05-02T04:30:00Z,30.2791,-87.5561,1.534,19.97,1111122 
DISL,ioos:station:DISL:PPTA:1,2016-05-02T05:00:00Z,30.2791,-87.5561,1.556,19.12,1111122 
DISL,ioos:station:DISL:PPTA:1,2016-05-02T05:30:00Z,30.2791,-87.5561,1.562,17.54,1111122 
DISL,ioos:station:DISL:PPTA:1,2016-05-02T06:00:00Z,30.2791,-87.5561,1.643,16.75,1111122 
DISL,ioos:station:DISL:PPTA:1,2016-05-02T06:30:00Z,30.2791,-87.5561,1.628,17.65,1111122 
DISL,ioos:station:DISL:PPTA:1,2016-05-02T07:00:00Z,30.2791,-87.5561,1.645,14.64,1111122 
DISL,ioos:station:DISL:PPTA:1,2016-05-02T07:30:00Z,30.2791,-87.5561,1.551,15.53,1111122 
DISL,ioos:station:DISL:PPTA:1,2016-05-02T08:00:00Z,30.2791,-87.5561,1.566,16.6,1111122 
DISL,ioos:station:DISL:PPTA:1,2016-05-02T08:30:00Z,30.2791,-87.5561,1.541,17.4,1111122 
DISL,ioos:station:DISL:PPTA:1,2016-05-02T09:00:00Z,30.2791,-87.5561,1.527,17.29,1111122 
DISL,ioos:station:DISL:PPTA:1,2016-05-02T09:30:00Z,30.2791,-87.5561,1.551,18.98,1111122 
DISL,ioos:station:DISL:PPTA:1,2016-05-02T10:00:00Z,30.2791,-87.5561,1.536,16.76,1111122 
DISL,ioos:station:DISL:PPTA:1,2016-05-02T10:30:00Z,30.2791,-87.5561,1.542,18.3,1111122 
DISL,ioos:station:DISL:PPTA:1,2016-05-02T11:00:00Z,30.2791,-87.5561,1.52,14.62,1111122 
DISL,ioos:station:DISL:PPTA:1,2016-05-02T11:30:00Z,30.2791,-87.5561,1.56,18.14,1111122 
DISL,ioos:station:DISL:PPTA:1,2016-05-02T12:00:00Z,30.2791,-87.5561,1.602,15.71,1111122 
DISL,ioos:station:DISL:PPTA:1,2016-05-02T12:30:00Z,30.2791,-87.5561,1.578,16.46,1111122 
DISL,ioos:station:DISL:PPTA:1,2016-05-02T13:00:00Z,30.2791,-87.5561,1.519,17.14,1111122 
DISL,ioos:station:DISL:PPTA:1,2016-05-02T13:30:00Z,30.2791,-87.5561,1.571,19.94,1111122 
DISL,ioos:station:DISL:PPTA:1,2016-05-02T14:00:00Z,30.2791,-87.5561,1.535,20.86,1111122 
DISL,ioos:station:DISL:PPTA:1,2016-05-02T14:30:00Z,30.2791,-87.5561,1.57,23.62,1111122 
DISL,ioos:station:DISL:PPTA:1,2016-05-02T15:00:00Z,30.2791,-87.5561,1.559,24.61,1111122 
DISL,ioos:station:DISL:PPTA:1,2016-05-02T15:30:00Z,30.2791,-87.5561,1.563,24.67,1111122 
DISL,ioos:station:DISL:PPTA:1,2016-05-02T16:00:00Z,30.2791,-87.5561,1.563,25.23,1111122 
DISL,ioos:station:DISL:PPTA:1,2016-05-02T16:30:00Z,30.2791,-87.5561,1.504,23.45,1111122 
DISL,ioos:station:DISL:PPTA:1,2016-05-02T17:00:00Z,30.2791,-87.5561,1.568,23.08,1111122 
DISL,ioos:station:DISL:PPTA:1,2016-05-02T17:30:00Z,30.2791,-87.5561,1.552,21.5,1111122 
DISL,ioos:station:DISL:PPTA:1,2016-05-02T18:00:00Z,30.2791,-87.5561,1.508,22.29,1111122 
DISL,ioos:station:DISL:PPTA:1,2016-05-02T18:30:00Z,30.2791,-87.5561,1.515,16.26,1111122 
DISL,ioos:station:DISL:PPTA:1,2016-05-02T19:00:00Z,30.2791,-87.5561,1.583,22.53,1111122 
DISL,ioos:station:DISL:PPTA:1,2016-05-02T19:30:00Z,30.2791,-87.5561,1.597,17.32,1111122 
DISL,ioos:station:DISL:PPTA:1,2016-05-02T20:00:00Z,30.2791,-87.5561,1.604,18.59,1111122 
DISL,ioos:station:DISL:PPTA:1,2016-05-02T20:30:00Z,30.2791,-87.5561,1.546,17.55,1111122 
DISL,ioos:station:DISL:PPTA:1,2016-05-02T21:00:00Z,30.2791,-87.5561,1.528,17.45,1111122 
DISL,ioos:station:DISL:PPTA:1,2016-05-02T21:30:00Z,30.2791,-87.5561,1.581,18.08,1111122 
DISL,ioos:station:DISL:PPTA:1,2016-05-02T22:00:00Z,30.2791,-87.5561,1.568,19.6,1111122 
DISL,ioos:station:DISL:PPTA:1,2016-05-02T22:30:00Z,30.2791,-87.5561,1.586,20.02,1111122 
DISL,ioos:station:DISL:PPTA:1,2016-05-02T23:00:00Z,30.2791,-87.5561,1.566,21.11,1111122 
DISL,ioos:station:DISL:PPTA:1,2016-05-02T23:30:00Z,30.2791,-87.5561,1.569,20.29,1111122 
DISL,ioos:station:DISL:PPTA:1,2016-05-03T00:00:00Z,30.2791,-87.5561,1.511,19.08,1111122 
DISL,ioos:station:DISL:PPTA:1,2016-05-03T00:30:00Z,30.2791,-87.5561,1.583,18.45,1111122 
DISL,ioos:station:DISL:PPTA:1,2016-05-03T01:00:00Z,30.2791,-87.5561,1.59,16.3,1111122 
DISL,ioos:station:DISL:PPTA:1,2016-05-03T01:30:00Z,30.2791,-87.5561,1.604,18.92,1111122 
DISL,ioos:station:DISL:PPTA:1,2016-05-03T02:00:00Z,30.2791,-87.5561,1.583,18.51,1111122 
DISL,ioos:station:DISL:PPTA:1,2016-05-03T02:30:00Z,30.2791,-87.5561,1.522,16.26,1111122 
DISL,ioos:station:DISL:PPTA:1,2016-05-03T03:00:00Z,30.2791,-87.5561,1.52,15.81,1111122 
DISL,ioos:station:DISL:PPTA:1,2016-05-03T03:30:00Z,30.2791,-87.5561,1.532,14.12,1111122 
DISL,ioos:station:DISL:PPTA:1,2016-05-03T04:00:00Z,30.2791,-87.5561,1.514,20.61,1111122 
DISL,ioos:station:DISL:PPTA:1,2016-05-03T04:30:00Z,30.2791,-87.5561,1.489,12.18,1111122 
DISL,ioos:station:DISL:PPTA:1,2016-05-03T05:00:00Z,30.2791,-87.5561,1.474,15.92,1111122 
DISL,ioos:station:DISL:PPTA:1,2016-05-03T05:30:00Z,30.2791,-87.5561,1.533,17.0,1111122 
DISL,ioos:station:DISL:PPTA:1,2016-05-03T06:00:00Z,30.2791,-87.5561,1.487,19.23,1111122 
DISL,ioos:station:DISL:PPTA:1,2016-05-03T06:30:00Z,30.2791,-87.5561,1.469,15.37,1111122 
DISL,ioos:station:DISL:PPTA:1,2016-05-03T07:00:00Z,30.2791,-87.5561,1.469,17.24,1111122 
DISL,ioos:station:DISL:PPTA:1,2016-05-03T07:30:00Z,30.2791,-87.5561,1.557,15.33,1111122 
DISL,ioos:station:DISL:PPTA:1,2016-05-03T08:00:00Z,30.2791,-87.5561,1.511,18.09,1111122 
DISL,ioos:station:DISL:PPTA:1,2016-05-03T08:30:00Z,30.2791,-87.5561,1.495,15.74,1111122 
DISL,ioos:station:DISL:PPTA:1,2016-05-03T09:00:00Z,30.2791,-87.5561,1.478,14.44,1111122 
DISL,ioos:station:DISL:PPTA:1,2016-05-03T09:30:00Z,30.2791,-87.5561,1.5,14.71,1111122 
DISL,ioos:station:DISL:PPTA:1,2016-05-03T10:00:00Z,30.2791,-87.5561,1.506,15.38,1111122 
DISL,ioos:station:DISL:PPTA:1,2016-05-03T10:30:00Z,30.2791,-87.5561,1.463,18.1,1111122 
DISL,ioos:station:DISL:PPTA:1,2016-05-03T11:00:00Z,30.2791,-87.5561,1.515,18.66,1111122 
DISL,ioos:station:DISL:PPTA:1,2016-05-03T11:30:00Z,30.2791,-87.5561,1.497,21.18,1111122 
DISL,ioos:station:DISL:PPTA:1,2016-05-03T12:00:00Z,30.2791,-87.5561,1.496,23.99,1111122 
DISL,ioos:station:DISL:PPTA:1,2016-05-03T12:30:00Z,30.2791,-87.5561,1.489,23.05,1111122 
DISL,ioos:station:DISL:PPTA:1,2016-05-03T13:00:00Z,30.2791,-87.5561,1.556,22.76,1111122 
DISL,ioos:station:DISL:PPTA:1,2016-05-03T13:30:00Z,30.2791,-87.5561,1.517,24.85,1111122 
DISL,ioos:station:DISL:PPTA:1,2016-05-03T14:00:00Z,30.2791,-87.5561,1.558,24.83,1111122 
DISL,ioos:station:DISL:PPTA:1,2016-05-03T14:30:00Z,30.2791,-87.5561,1.52,22.31,1111122 
DISL,ioos:station:DISL:PPTA:1,2016-05-03T15:00:00Z,30.2791,-87.5561,1.486,22.95,1111122 
DISL,ioos:station:DISL:PPTA:1,2016-05-03T15:30:00Z,30.2791,-87.5561,1.559,24.79,1111122 
DISL,ioos:station:DISL:PPTA:1,2016-05-03T16:00:00Z,30.2791,-87.5561,1.554,22.01,1111122 
DISL,ioos:station:DISL:PPTA:1,2016-05-03T16:30:00Z,30.2791,-87.5561,1.506,22.73,1111122 
DISL,ioos:station:DISL:PPTA:1,2016-05-03T17:00:00Z,30.2791,-87.5561,1.469,22.52,1111122 
DISL,ioos:station:DISL:PPTA:1,2016-05-03T17:30:00Z,30.2791,-87.5561,1.502,21.21,1111122 
DISL,ioos:station:DISL:PPTA:1,2016-05-03T18:00:00Z,30.2791,-87.5561,1.463,22.16,1111122 
DISL,ioos:station:DISL:PPTA:1,2016-05-03T18:30:00Z,30.2791,-87.5561,1.547,21.21,1111122 
DISL,ioos:station:DISL:PPTA:1,2016-05-03T19:00:00Z,30.2791,-87.5561,1.456,20.62,1111122 
DISL,ioos:station:DISL:PPTA:1,2016-05-03T19:30:00Z,30.2791,-87.5561,1.531,18.27,1111122 
DISL,ioos:station:DISL:PPTA:1,2016-05-03T20:00:00Z,30.2791,-87.5561,1.529,13.32,1111122 
DISL,ioos:station:DISL:PPTA:1,2016-05-03T20:30:00Z,30.2791,-87.5561,1.497,14.47,1111122 
DISL,ioos:station:DISL:PPTA:1,2016-05-03T21:00:00Z,30.2791,-87.5561,1.512,15.84,1111122 
DISL,ioos:station:DISL:PPTA:1,2016-05-03T21:30:00Z,30.2791,-87.5561,1.455,15.54,1111122 
DISL,ioos:station:DISL:PPTA:1,2016-05-03T22:00:00Z,30.2791,-87.5561,1.524,15.49,1111122 
DISL,ioos:station:DISL:PPTA:1,2016-05-03T22:30:00Z,30.2791,-87.5561,1.51,15.68,1111122 
DISL,ioos:station:DISL:PPTA:1,2016-05-03T23:00:00Z,30.2791,-87.5561,1.474,18.58,1111122 
DISL,ioos:station:DISL:PPTA:1,2016-05-03T23:30:00Z,30.2791,-87.5561,1.513,14.81,1111122 
DISL,ioos:station:DISL:PPTA:1,2016-05-04T00:00:00Z,30.2791,-87.5561,1.461,16.19,1111122 
DISL,ioos:station:DISL:PPTA:1,2016-05-04T00:30:00Z,30.2791,-87.5561,1.47,15.21,1111122 
DISL,ioos:station:DISL:PPTA:1,2016-05-04T01:00:00Z,30.2791,-87.5561,1.547,14.12,1111122 
DISL,ioos:station:DISL:PPTA:1,2016-05-04T01:30:00Z,30.2791,-87.5561,1.54,15.3,1111122 
DISL,ioos:station:DISL:PPTA:1,2016-05-04T02:00:00Z,30.2791,-87.5561,1.529,18.74,1111122 
DISL,ioos:station:DISL:PPTA:1,2016-05-04T02:30:00Z,30.2791,-87.5561,1.477,17.12,1111122 
DISL,ioos:station:DISL:PPTA:1,2016-05-04T03:00:00Z,30.2791,-87.5561,1.539,22.42,1111122 
DISL,ioos:station:DISL:PPTA:1,2016-05-04T03:30:00Z,30.2791,-87.5561,1.464,19.25,1111122 
DISL,ioos:station:DISL:PPTA:1,2016-05-04T04:00:00Z,30.2791,-87.5561,1.46,20.2,1111122 
DISL,ioos:station:DISL:PPTA:1,2016-05-04T04:30:00Z,30.2791,-87.5561,1.466,18.34,1111122 
DISL,ioos:station:DISL:PPTA:1,2016-05-04T05:00:00Z,30.2791,-87.5561,1.443,15.69,1111122 
DISL,ioos:station:DISL:PPTA:1,2016-05-04T05:30:00Z,30.2791,-87.5561,1.503,12.68,1111122 
DISL,ioos:station:DISL:PPTA:1,2016-05-04T06:00:00Z,30.2791,-87.5561,1.462,10.36,1111122 
DISL,ioos:station:DISL:PPTA:1,2016-05-04T06:30:00Z,30.2791,-87.5561,1.513,10.89,1111122 
DISL,ioos:station:DISL:PPTA:1,2016-05-04T07:00:00Z,30.2791,-87.5561,1.509,17.4,1111122 
DISL,ioos:station:DISL:PPTA:1,2016-05-04T07:30:00Z,30.2791,-87.5561,1.526,19.23,1111122 
DISL,ioos:station:DISL:PPTA:1,2016-05-04T08:00:00Z,30.2791,-87.5561,1.525,13.04,1111122 
DISL,ioos:station:DISL:PPTA:1,2016-05-04T08:30:00Z,30.2791,-87.5561,1.519,13.0,1111122 
DISL,ioos:station:DISL:PPTA:1,2016-05-04T09:00:00Z,30.2791,-87.5561,1.498,14.4,1111122 
DISL,ioos:station:DISL:PPTA:1,2016-05-04T09:30:00Z,30.2791,-87.5561,1.532,9.51,1111122 
DISL,ioos:station:DISL:PPTA:1,2016-05-04T10:00:00Z,30.2791,-87.5561,1.477,14.56,1111122 
DISL,ioos:station:DISL:PPTA:1,2016-05-04T10:30:00Z,30.2791,-87.5561,1.53,18.62,1111122 
DISL,ioos:station:DISL:PPTA:1,2016-05-04T11:00:00Z,30.2791,-87.5561,1.487,11.0,1111122 
DISL,ioos:station:DISL:PPTA:1,2016-05-04T11:30:00Z,30.2791,-87.5561,1.529,10.05,1111122 
DISL,ioos:station:DISL:PPTA:1,2016-05-04T12:00:00Z,30.2791,-87.5561,1.502,16.74,1111122 
DISL,ioos:station:DISL:PPTA:1,2016-05-04T12:30:00Z,30.2791,-87.5561,1.479,20.22,1111122 
DISL,ioos:station:DISL:PPTA:1,2016-05-04T13:00:00Z,30.2791,-87.5561,1.528,25.13,1111122 
DISL,ioos:station:DISL:PPTA:1,2016-05-04T13:30:00Z,30.2791,-87.5561,1.533,24.63,1111122 
DISL,ioos:station:DISL:PPTA:1,2016-05-04T14:00:00Z,30.2791,-87.5561,1.544,25.66,1111122 
DISL,ioos:station:DISL:PPTA:1,2016-05-04T14:30:00Z,30.2791,-87.5561,1.541,22.09,1111122 
DISL,ioos:station:DISL:PPTA:1,2016-05-04T15:00:00Z,30.2791,-87.5561,1.56,22.98,1111122 
DISL,ioos:station:DISL:PPTA:1,2016-05-04T15:30:00Z,30.2791,-87.5561,1.478,22.78,1111122 
DISL,ioos:station:DISL:PPTA:1,2016-05-04T16:00:00Z,30.2791,-87.5561,1.497,22.1,1111122 
DISL,ioos:station:DISL:PPTA:1,2016-05-04T16:30:00Z,30.2791,-87.5561,1.476,25.24,1111122 
DISL,ioos:station:DISL:PPTA:1,2016-05-04T17:00:00Z,30.2791,-87.5561,1.427,21.31,1111122 
DISL,ioos:station:DISL:PPTA:1,2016-05-04T17:30:00Z,30.2791,-87.5561,1.47,14.84,1111122 
DISL,ioos:station:DISL:PPTA:1,2016-05-04T18:00:00Z,30.2791,-87.5561,1.481,19.36,1111122 
DISL,ioos:station:DISL:PPTA:1,2016-05-04T18:30:00Z,30.2791,-87.5561,1.466,15.71,1111122 
DISL,ioos:station:DISL:PPTA:1,2016-05-04T19:00:00Z,30.2791,-87.5561,1.482,21.46,1111122 
DISL,ioos:station:DISL:PPTA:1,2016-05-04T19:30:00Z,30.2791,-87.5561,1.444,18.66,1111122 
DISL,ioos:station:DISL:PPTA:1,2016-05-04T20:00:00Z,30.2791,-87.5561,1.4,16.45,1111122 
DISL,ioos:station:DISL:PPTA:1,2016-05-04T20:30:00Z,30.2791,-87.5561,1.428,16.74,1111122 
DISL,ioos:station:DISL:PPTA:1,2016-05-04T21:00:00Z,30.2791,-87.5561,1.417,13.62,1111122 
DISL,ioos:station:DISL:PPTA:1,2016-05-04T21:30:00Z,30.2791,-87.5561,1.442,14.26,1111122 
DISL,ioos:station:DISL:PPTA:1,2016-05-04T22:00:00Z,30.2791,-87.5561,1.375,11.11,1111122 
DISL,ioos:station:DISL:PPTA:1,2016-05-04T22:30:00Z,30.2791,-87.5561,1.392,16.78,1111122 
DISL,ioos:station:DISL:PPTA:1,2016-05-04T23:00:00Z,30.2791,-87.5561,1.425,13.67,1111122 
DISL,ioos:station:DISL:PPTA:1,2016-05-04T23:30:00Z,30.2791,-87.5561,1.411,12.58,1111122 
DISL,ioos:station:DISL:PPTA:1,2016-05-05T00:00:00Z,30.2791,-87.5561,1.41,19.24,1111122 
DISL,ioos:station:DISL:PPTA:1,2016-05-05T00:30:00Z,30.2791,-87.5561,1.386,14.65,1111122 
DISL,ioos:station:DISL:PPTA:1,2016-05-05T01:00:00Z,30.2791,-87.5561,1.394,13.82,1111122 
DISL,ioos:station:DISL:PPTA:1,2016-05-05T01:30:00Z,30.2791,-87.5561,1.401,13.23,1111122 
DISL,ioos:station:DISL:PPTA:1,2016-05-05T02:00:00Z,30.2791,-87.5561,1.42,11.14,1111122 
DISL,ioos:station:DISL:PPTA:1,2016-05-05T02:30:00Z,30.2791,-87.5561,1.422,13.03,1111122 
DISL,ioos:station:DISL:PPTA:1,2016-05-05T03:00:00Z,30.2791,-87.5561,1.431,13.33,1111122 
DISL,ioos:station:DISL:PPTA:1,2016-05-05T03:30:00Z,30.2791,-87.5561,1.422,16.59,1111122 
DISL,ioos:station:DISL:PPTA:1,2016-05-05T04:00:00Z,30.2791,-87.5561,1.417,23.67,1111122 
DISL,ioos:station:DISL:PPTA:1,2016-05-05T04:30:00Z,30.2791,-87.5561,1.423,21.59,1111122 
DISL,ioos:station:DISL:PPTA:1,2016-05-05T05:00:00Z,30.2791,-87.5561,1.379,24.38,1111122 
DISL,ioos:station:DISL:PPTA:1,2016-05-05T05:30:00Z,30.2791,-87.5561,1.35,24.3,1111122 
DISL,ioos:station:DISL:PPTA:1,2016-05-05T06:00:00Z,30.2791,-87.5561,1.421,21.69,1111122 
DISL,ioos:station:DISL:PPTA:1,2016-05-05T06:30:00Z,30.2791,-87.5561,1.403,22.26,1111122 
DISL,ioos:station:DISL:PPTA:1,2016-05-05T07:00:00Z,30.2791,-87.5561,1.429,21.27,1111122 
DISL,ioos:station:DISL:PPTA:1,2016-05-05T07:30:00Z,30.2791,-87.5561,1.395,25.34,1111122 
DISL,ioos:station:DISL:PPTA:1,2016-05-05T08:00:00Z,30.2791,-87.5561,1.399,24.38,1111122 
DISL,ioos:station:DISL:PPTA:1,2016-05-05T08:30:00Z,30.2791,-87.5561,1.43,21.62,1111122 
DISL,ioos:station:DISL:PPTA:1,2016-05-05T09:00:00Z,30.2791,-87.5561,1.421,24.19,1111122 
DISL,ioos:station:DISL:PPTA:1,2016-05-05T09:30:00Z,30.2791,-87.5561,1.39,23.45,1111122 
DISL,ioos:station:DISL:PPTA:1,2016-05-05T10:00:00Z,30.2791,-87.5561,1.417,24.78,1111122 
DISL,ioos:station:DISL:PPTA:1,2016-05-05T10:30:00Z,30.2791,-87.5561,1.393,23.44,1111122 
DISL,ioos:station:DISL:PPTA:1,2016-05-05T11:00:00Z,30.2791,-87.5561,1.474,20.83,1111122 
DISL,ioos:station:DISL:PPTA:1,2016-05-05T11:30:00Z,30.2791,-87.5561,1.393,23.66,1111122 
DISL,ioos:station:DISL:PPTA:1,2016-05-05T12:00:00Z,30.2791,-87.5561,1.469,21.97,1111122 
DISL,ioos:station:DISL:PPTA:1,2016-05-05T12:30:00Z,30.2791,-87.5561,1.466,24.58,1111122 
DISL,ioos:station:DISL:PPTA:1,2016-05-05T13:00:00Z,30.2791,-87.5561,1.462,24.75,1111122 
DISL,ioos:station:DISL:PPTA:1,2016-05-05T13:30:00Z,30.2791,-87.5561,1.497,24.32,1111122 
DISL,ioos:station:DISL:PPTA:1,2016-05-05T14:00:00Z,30.2791,-87.5561,1.494,25.0,1111122 
DISL,ioos:station:DISL:PPTA:1,2016-05-05T14:30:00Z,30.2791,-87.5561,1.51,21.6,1111122 
DISL,ioos:station:DISL:PPTA:1,2016-05-05T15:00:00Z,30.2791,-87.5561,1.484,21.48,1111122 
DISL,ioos:station:DISL:PPTA:1,2016-05-05T15:30:00Z,30.2791,-87.5561,1.498,23.91,1111122 
DISL,ioos:station:DISL:PPTA:1,2016-05-05T16:00:00Z,30.2791,-87.5561,1.474,21.15,1111122 
DISL,ioos:station:DISL:PPTA:1,2016-05-05T16:30:00Z,30.2791,-87.5561,1.418,24.24,1111122 
DISL,ioos:station:DISL:PPTA:1,2016-05-05T17:00:00Z,30.2791,-87.5561,1.439,24.47,1111122 
DISL,ioos:station:DISL:PPTA:1,2016-05-05T17:30:00Z,30.2791,-87.5561,1.381,23.86,1111122 
DISL,ioos:station:DISL:PPTA:1,2016-05-05T18:00:00Z,30.2791,-87.5561,1.424,16.77,1111122 
DISL,ioos:station:DISL:PPTA:1,2016-05-05T18:30:00Z,30.2791,-87.5561,1.341,17.53,1111122 
DISL,ioos:station:DISL:PPTA:1,2016-05-05T19:00:00Z,30.2791,-87.5561,1.339,19.09,1111122 
DISL,ioos:station:DISL:PPTA:1,2016-05-05T19:30:00Z,30.2791,-87.5561,1.352,18.67,1111122 
DISL,ioos:station:DISL:PPTA:1,2016-05-05T20:00:00Z,30.2791,-87.5561,1.308,18.66,1111122 
DISL,ioos:station:DISL:PPTA:1,2016-05-05T20:30:00Z,30.2791,-87.5561,1.315,15.5,1111122 
DISL,ioos:station:DISL:PPTA:1,2016-05-05T21:00:00Z,30.2791,-87.5561,1.327,13.76,1111122 
DISL,ioos:station:DISL:PPTA:1,2016-05-05T21:30:00Z,30.2791,-87.5561,1.238,18.77,1111122 
DISL,ioos:station:DISL:PPTA:1,2016-05-05T22:00:00Z,30.2791,-87.5561,1.259,13.28,1111122 
DISL,ioos:station:DISL:PPTA:1,2016-05-05T22:30:00Z,30.2791,-87.5561,1.287,12.9,1111122 
DISL,ioos:station:DISL:PPTA:1,2016-05-05T23:00:00Z,30.2791,-87.5561,1.248,12.14,1111122 
DISL,ioos:station:DISL:PPTA:1,2016-05-05T23:30:00Z,30.2791,-87.5561,1.298,10.78,1111122 
DISL,ioos:station:DISL:PPTA:1,2016-05-06T00:00:00Z,30.2791,-87.5561,1.295,10.91,1111122 
DISL,ioos:station:DISL:PPTA:1,2016-05-06T00:30:00Z,30.2791,-87.5561,1.213,11.51,1111122 
DISL,ioos:station:DISL:PPTA:1,2016-05-06T01:00:00Z,30.2791,-87.5561,1.28,11.87,1111122 
DISL,ioos:station:DISL:PPTA:1,2016-05-06T01:30:00Z,30.2791,-87.5561,1.269,11.77,1111122 
DISL,ioos:station:DISL:PPTA:1,2016-05-06T02:00:00Z,30.2791,-87.5561,1.257,10.71,1111122 
DISL,ioos:station:DISL:PPTA:1,2016-05-06T02:30:00Z,30.2791,-87.5561,1.213,11.37,1111122 
DISL,ioos:station:DISL:PPTA:1,2016-05-06T03:00:00Z,30.2791,-87.5561,1.238,15.48,1111122 
DISL,ioos:station:DISL:PPTA:1,2016-05-06T03:30:00Z,30.2791,-87.5561,1.319,11.95,1111122 
DISL,ioos:station:DISL:PPTA:1,2016-05-06T04:00:00Z,30.2791,-87.5561,1.273,13.47,1111122 
DISL,ioos:station:DISL:PPTA:1,2016-05-06T04:30:00Z,30.2791,-87.5561,1.282,19.02,1111122 
DISL,ioos:station:DISL:PPTA:1,2016-05-06T05:00:00Z,30.2791,-87.5561,1.224,21.98,1111122 
DISL,ioos:station:DISL:PPTA:1,2016-05-06T05:30:00Z,30.2791,-87.5561,1.251,22.7,1111122 
DISL,ioos:station:DISL:PPTA:1,2016-05-06T06:00:00Z,30.2791,-87.5561,1.275,24.15,1111122 
DISL,ioos:station:DISL:PPTA:1,2016-05-06T06:30:00Z,30.2791,-87.5561,1.289,24.54,1111122 
DISL,ioos:station:DISL:PPTA:1,2016-05-06T07:00:00Z,30.2791,-87.5561,1.292,20.78,1111122 
DISL,ioos:station:DISL:PPTA:1,2016-05-06T07:30:00Z,30.2791,-87.5561,1.301,21.71,1111122 
DISL,ioos:station:DISL:PPTA:1,2016-05-06T08:00:00Z,30.2791,-87.5561,1.334,20.21,1111122 
DISL,ioos:station:DISL:PPTA:1,2016-05-06T08:30:00Z,30.2791,-87.5561,1.332,23.89,1111122 
DISL,ioos:station:DISL:PPTA:1,2016-05-06T09:00:00Z,30.2791,-87.5561,1.324,24.51,1111122 
DISL,ioos:station:DISL:PPTA:1,2016-05-06T09:30:00Z,30.2791,-87.5561,1.383,20.95,1111122 
DISL,ioos:station:DISL:PPTA:1,2016-05-06T10:00:00Z,30.2791,-87.5561,1.388,22.12,1111122 
DISL,ioos:station:DISL:PPTA:1,2016-05-06T10:30:00Z,30.2791,-87.5561,1.435,20.73,1111122 
DISL,ioos:station:DISL:PPTA:1,2016-05-06T11:00:00Z,30.2791,-87.5561,1.422,20.8,1111122 
DISL,ioos:station:DISL:PPTA:1,2016-05-06T11:30:00Z,30.2791,-87.5561,1.424,21.99,1111122 
DISL,ioos:station:DISL:PPTA:1,2016-05-06T12:00:00Z,30.2791,-87.5561,1.461,20.55,1111122 
DISL,ioos:station:DISL:PPTA:1,2016-05-06T12:30:00Z,30.2791,-87.5561,1.425,24.73,1111122 
DISL,ioos:station:DISL:PPTA:1,2016-05-06T13:00:00Z,30.2791,-87.5561,1.46,24.67,1111122 
DISL,ioos:station:DISL:PPTA:1,2016-05-06T13:30:00Z,30.2791,-87.5561,1.487,24.81,1111122 
DISL,ioos:station:DISL:PPTA:1,2016-05-06T14:00:00Z,30.2791,-87.5561,1.466,22.49,1111122 